This demonstration page uses our WeatherBlox Daily Observations layout. Learn more.

Left ArrowRight Arrow

34.02893, -84.19858

Hourly Observations for November 1, 2015

Temp ( °F °C ) Dew Point ( °F °C ) Humidity (%) Winds ( mph kmh ) Pressure ( in mb ) Visibility ( mi km ) Precip ( " mm )
11:53 am 11:53 Cloudy 64 18 63 17 94 94 Calm 30.00 1016 10 16 0.00 0.00
12:53 pm 12:53 Cloudy 64 17.8 63 17.2 96 96 Calm 29.99 1016 10 16 0.00 0.00
1:53 pm 13:53 Cloudy 64 17.8 63 17.2 96 96 Calm 29.97 1015 8 13 0.00 0.03
2:53 pm 14:53 Cloudy with Light Rain 64 17.8 63 17.2 96 96 Calm 29.99 1016 9 14 0.00 0.03
3:51 pm 15:51 Cloudy with Rain 64 18 63 17 94 94 NNE 5 7 30.00 1016 3 4 0.07 1.78
3:53 pm 15:53 Cloudy with Rain 63 17.2 63 17.2 100 100 NNE 5 7 30.00 1016 3 4 0.07 1.78
4:53 pm 16:53 Cloudy with Light Rain 63 17.2 63 17.2 100 100 Calm 30.02 1017 3 5 0.05 1.27
4:57 pm 16:57 Cloudy with Light Rain 63 17.2 63 17.2 100 100 Calm 30.00 1016 3 4 0.01 0.25
5:05 pm 17:05 Cloudy with Light Rain 63 17.2 63 17.2 100 100 Calm 30.00 1016 3 4 0.01 0.25
5:12 pm 17:12 Cloudy with Light Rain 63 17 63 17 100 100 NE 5 7 29.97 1015 3 5 0.00 0.00
5:41 pm 17:41 Cloudy with Light Rain 63 17.2 63 17.2 100 100 Calm 30.00 1016 2 3 0.03 0.76
5:51 pm 17:51 Cloudy with Light Rain 63 17 63 17 100 100 Calm 30.00 1016 5 8 0.04 1.02
5:53 pm 17:53 Cloudy with Light Rain 63 17.2 62 16.7 97 97 E 3 6 30.01 1016 4 6 0.04 1.02
5:58 pm 17:58 Cloudy with Light Rain 63 17 63 17 100 100 Calm 29.97 1015 3 4 0.00 0.00
6:07 pm 18:07 Cloudy with Light Rain 62 16.7 62 16.7 100 100 VRB 5 7 29.97 1015 3 5 0.01 0.25
6:22 pm 18:22 Cloudy with Light Rain 63 17 63 17 100 100 Calm 29.97 1015 6 10 0.00 0.00
6:53 pm 18:53 Mostly Clear 57 14 52 11 82 82 VRB 6 9 30.06 1018 10 16 0.00 0.00
7:08 pm 19:08 Cloudy with Light Rain 63 17 63 17 100 100 Calm 30.00 1016 2 3 0.00 0.00
7:13 pm 19:13 Cloudy with Light Rain 62 16.7 62 16.7 100 100 Calm 30.00 1016 1 2 0.03 0.76
7:21 pm 19:21 Cloudy with Light Rain 62 16.7 62 16.7 100 100 E 3 6 30.00 1016 2 2 0.04 1.02
7:30 pm 19:30 Cloudy with Light Rain 63 17 63 17 100 100 Calm 30.00 1016 3 5 0.00 0.00
7:39 pm 19:39 Mostly Cloudy with Light Rain 63 17.2 63 17.2 100 100 Calm 30.03 1017 5 8 0.05 1.27
7:48 pm 19:48 Cloudy with Light Rain 63 17 63 17 100 100 VRB 3 6 29.97 1015 2 3 0.00 0.00
7:53 pm 19:53 Cloudy with Light Rain 63 17.2 63 17.2 100 100 VRB 3 6 30.01 1016 2 2 0.06 1.52
7:57 pm 19:57 Cloudy with Light Rain 63 17.2 63 17.2 100 100 VRB 5 7 30.00 1016 3 5 0.00 0.03
8:35 pm 20:35 Cloudy with Light Rain 63 17.2 63 17.2 100 100 E 5 7 30.00 1016 5 8 0.03 0.76
8:53 pm 20:53 Cloudy with Light Rain 63 17.2 63 17.2 100 100 Calm 30.01 1016 6 10 0.04 1.02
9:10 pm 21:10 Cloudy with Light Rain 63 17 63 17 100 100 Calm 30.00 1016 6 10 0.00 0.00
9:39 pm 21:39 Cloudy with Light Rain 63 17.2 63 17.2 100 100 ENE 5 7 30.00 1016 6 10 0.02 0.51
9:53 pm 21:53 Cloudy with Light Rain 63 17.2 63 17.2 100 100 Calm 30.00 1016 8 13 0.02 0.51
10:03 pm 22:03 Cloudy 63 17 63 17 100 100 Calm 30.00 1016 8 13 0.00 0.00
10:53 pm 22:53 Cloudy 63 17.2 63 17.2 100 100 VRB 6 9 29.98 1015 10 16 0.01 0.25
11:53 pm 23:53 Cloudy 63 17.2 63 17.2 100 100 VRB 3 6 29.96 1015 10 16 0.00 0.03

Powered by AerisWeather